Location: *
(55.5817°S, 142.4781°W)
Time: 07:08:04
(UTC+00:00)

Cosmos 2251 Rocket - Pass Details

Date: 29 April 2025
Orbit: 761 x 788 km, 74.0° (Epoch: 23 May)

Event Time Altitude Azimuth Distance (km) Brightness Sun altitude
Exits shadow 15:30:59 - 211° (SSW) 3,100 6.3 -11.5°
Reaches altitude 10° 15:32:56 10° 215° (SW) 2,360 5.6 -11.3°
Maximum altitude 15:38:05 50° 289° (WNW) 994 3.8 -10.6°
Drops below altitude 10° 15:43:10 10° 2° (N) 2,318 6.2 -9.9°
Sets 15:45:34 0° 7° (N) 3,234 7.0 -9.5°
